(172088) = 2002 CB211

Discovered at Socorro on 2002-02-10 by LINEAR.

Orbit

Orbit type: Main Belt

Note: WebGL enabled browser required.

epoch2023-09-13.0
epoch JD2460200.5
perihelion date2021-01-17.97312
perihelion JD2459232.47312
argument of perihelion (°)91.75454
ascending node (°)6.48497
inclination (°)2.79905
eccentricity0.0856915
perihelion distance (AU)1.9957237
Tisserand w.r.t. Jupiter3.7
ΔV w.r.t. Earth (km/sec)8.7
semimajor axis (AU)2.1827684
mean anomaly (°)295.85559
mean daily motion (°/day)0.30562750
aphelion distance (AU)2.370
period (years)3.22
P-vector [x]-0.14317679
P-vector [y]0.88750873
P-vector [z]0.43798248
Q-vector [x]-0.98968176
Q-vector [y]-0.13085767
Q-vector [z]-0.05836338
absolute magnitude17.44
phase slope0.15
uncertainty0
referenceMPEC 2024-A124
observations used450
oppositions13
arc length (days)9037
first opposition used1999
last opposition used2024
residual rms (arc-secs)0.81
perturbers coarse indicatorM-v
perturbers precise indicator003Ek
first observation date used1999-04-14.0
last observation date used2024-01-10.0
computer nameMPCLINUX
JD of orbit computation2456581.573803
perihelion JD uncertainty (days)2.1198E-04
argument of perihelion uncertainty (°)1.0837E-04
ascending node uncertainty (°)8.9216E-05
inclination uncertainty (°)6.2776E-06
eccentricity uncertainty 5.3340E-08
perihelion distance uncertainty (AU)1.2841E-07
Minimum Orbit Intersection Distances (in AU)
for orbit epoch: 2460200.5, reference: E2024-AC4
Mercury1.68242
Venus1.27688
Earth1.01356
Mars0.37088
Jupiter2.72487
Saturn7.05937
Uranus16.3247
Neptune27.6896

Observations

465 total observations over interval: 1999 04 14.29454 – 2024 01 10.136416
These data are available for download (format description).

Date (UT) J2000 RA J2000 Dec Magn Location Ref
1999 04 14.29454 12 42 24.27 -05 35 27.2 20.6 V 691 – Steward Observatory, Kitt Peak-Spacewatch MPS 55567
1999 04 14.31547 12 42 23.08 -05 35 21.2 20.3 V 691 – Steward Observatory, Kitt Peak-Spacewatch MPS 55567
1999 04 14.33789 12 42 21.70 -05 35 14.9 20.0 V 691 – Steward Observatory, Kitt Peak-Spacewatch MPS 55567
2000 08 27.12839 22 17 30.45 -13 38 38.8 19.3 R 807 – Cerro Tololo Observatory, La Serena MPS 55567
2000 08 27.19922 22 17 25.75 -13 38 58.4   807 – Cerro Tololo Observatory, La Serena MPS 55567
2002 02 07.35915 10 52 16.44 +10 33 13.9 19.2 R 695 – Kitt Peak MPS 52742
2002 02 07.46054 10 52 11.13 +10 33 39.1   695 – Kitt Peak MPS 52742
2002 02 10.31932 10 49 42.72 +10 45 58.0 19.9   704 – Lincoln Laboratory ETS, New Mexico MPS 50395
2002 02 10.33349 10 49 41.96 +10 46 01.6 19.6   704 – Lincoln Laboratory ETS, New Mexico MPS 50395
2002 02 10.34767 10 49 41.21 +10 46 05.5 19.7   704 – Lincoln Laboratory ETS, New Mexico MPS 50395
2002 02 10.37600 10 49 39.54 +10 46 13.0 19.7   704 – Lincoln Laboratory ETS, New Mexico MPS 50395
2002 02 12.39691 10 47 47.20 +10 55 20.8 19.4   704 – Lincoln Laboratory ETS, New Mexico MPS 50395
2002 02 12.41114 10 47 46.34 +10 55 24.0 19.5   704 – Lincoln Laboratory ETS, New Mexico MPS 50395
2002 02 12.42543 10 47 45.51 +10 55 28.8 19.9   704 – Lincoln Laboratory ETS, New Mexico MPS 50395
2002 02 12.43966 10 47 44.67 +10 55 32.6 20.0   704 – Lincoln Laboratory ETS, New Mexico MPS 50395
2002 02 20.24383 10 39 50.85 +11 32 07.6 18.6   704 – Lincoln Laboratory ETS, New Mexico MPS 52742
2002 02 20.25756 10 39 49.98 +11 32 11.9 19.2   704 – Lincoln Laboratory ETS, New Mexico MPS 52742
2002 02 20.27132 10 39 49.03 +11 32 16.2 19.1   704 – Lincoln Laboratory ETS, New Mexico MPS 52742
2002 02 20.28523 10 39 48.12 +11 32 20.1 19.5   704 – Lincoln Laboratory ETS, New Mexico MPS 52742
2002 02 20.29898 10 39 47.20 +11 32 24.1 19.3   704 – Lincoln Laboratory ETS, New Mexico MPS 52742
2002 03 04.38470 10 26 53.12 +12 25 25.9 19.3   644 – Palomar Mountain/NEAT MPS 55567
2002 03 04.40583 10 26 51.76 +12 25 30.8 19.4   644 – Palomar Mountain/NEAT MPS 55567
2002 03 04.43010 10 26 50.23 +12 25 36.0 20.5   644 – Palomar Mountain/NEAT MPS 55567
2002 03 09.27468 10 22 00.74 +12 42 47.6 19.9   644 – Palomar Mountain/NEAT MPS 55567
2002 03 09.35049 10 21 56.19 +12 43 01.7 19.8   644 – Palomar Mountain/NEAT MPS 55567
2002 03 09.42013 10 21 52.04 +12 43 14.9 19.9   644 – Palomar Mountain/NEAT MPS 55567
2002 03 12.36767 10 19 09.03 +12 52 00.5 20.0   644 – Palomar Mountain/NEAT MPS 55567
2002 03 12.39569 10 19 07.49 +12 52 04.9 19.7   644 – Palomar Mountain/NEAT MPS 55567
2002 03 12.43296 10 19 05.41 +12 52 10.8 19.8   644 – Palomar Mountain/NEAT MPS 55567
2002 03 14.18068 10 17 35.16 +12 56 42.5 19.7   704 – Lincoln Laboratory ETS, New Mexico MPS 55567
2002 03 14.20658 10 17 33.69 +12 56 45.7 20.2   704 – Lincoln Laboratory ETS, New Mexico MPS 55567
2002 03 14.21961 10 17 33.12 +12 56 48.6 19.8   704 – Lincoln Laboratory ETS, New Mexico MPS 55567
2002 03 14.23262 10 17 32.39 +12 56 49.3 19.5   704 – Lincoln Laboratory ETS, New Mexico MPS 55567
2002 03 16.18023 10 15 57.07 +13 01 15.3 19.4   704 – Lincoln Laboratory ETS, New Mexico MPS 55567
2002 03 16.19293 10 15 56.35 +13 01 17.0 19.3   704 – Lincoln Laboratory ETS, New Mexico MPS 55567
2002 03 16.20566 10 15 55.71 +13 01 19.0 19.6   704 – Lincoln Laboratory ETS, New Mexico MPS 55567
2002 03 16.21848 10 15 55.11 +13 01 19.9 20.2   704 – Lincoln Laboratory ETS, New Mexico MPS 55567
2002 03 16.23133 10 15 54.42 +13 01 22.2 20.2   704 – Lincoln Laboratory ETS, New Mexico MPS 55567
2002 03 20.24434 10 12 58.34 +13 08 22.1 21.2 V 291 – LPL/Spacewatch II MPS 55567
2002 03 20.26487 10 12 57.44 +13 08 23.9 20.5 V 291 – LPL/Spacewatch II MPS 55567
2002 03 20.28575 10 12 56.55 +13 08 25.5 20.3 V 291 – LPL/Spacewatch II MPS 55567
2005 01 07.27688 07 43 21.46 +26 44 49.9 19.4   704 – Lincoln Laboratory ETS, New Mexico MPS 124054
2005 01 07.28981 07 43 20.43 +26 44 50.9 20.0   704 – Lincoln Laboratory ETS, New Mexico MPS 124054
2005 01 07.28992 07 43 20.50 +26 44 52.1 19.8   704 – Lincoln Laboratory ETS, New Mexico MPS 124054
2005 01 07.30435 07 43 19.34 +26 44 53.3 19.7   704 – Lincoln Laboratory ETS, New Mexico MPS 124054
2005 01 07.30446 07 43 19.44 +26 44 54.1 19.3   704 – Lincoln Laboratory ETS, New Mexico MPS 124054
2005 01 07.31785 07 43 18.40 +26 44 56.1 19.3   704 – Lincoln Laboratory ETS, New Mexico MPS 124054
2005 01 07.31796 07 43 18.44 +26 44 56.0 19.4   704 – Lincoln Laboratory ETS, New Mexico MPS 124054
2005 01 07.33081 07 43 17.44 +26 44 58.0 19.4   704 – Lincoln Laboratory ETS, New Mexico MPS 124054
2005 01 07.33092 07 43 17.42 +26 44 58.5 19.3   704 – Lincoln Laboratory ETS, New Mexico MPS 124054
2005 01 16.28995 07 32 30.62 +27 04 09.7 19.0   704 – Lincoln Laboratory ETS, New Mexico MPS 124670
2005 01 16.30379 07 32 29.65 +27 04 09.6 19.7   704 – Lincoln Laboratory ETS, New Mexico MPS 124670
2005 01 16.31758 07 32 28.63 +27 04 11.2 19.6   704 – Lincoln Laboratory ETS, New Mexico MPS 124670
2005 01 18.23678 07 30 12.29 +27 06 56.3 19.7 V 691 – Steward Observatory, Kitt Peak-Spacewatch MPS 124670
2005 01 18.26244 07 30 10.39 +27 06 58.3 19.3 V 691 – Steward Observatory, Kitt Peak-Spacewatch MPS 124670
2005 01 18.28889 07 30 08.44 +27 07 00.4 19.6 V 691 – Steward Observatory, Kitt Peak-Spacewatch MPS 124670
2005 01 19.28101 07 28 58.90 +27 08 13.7 19.0   704 – Lincoln Laboratory ETS, New Mexico MPS 124670
2005 01 19.29454 07 28 57.93 +27 08 14.3 18.9   704 – Lincoln Laboratory ETS, New Mexico MPS 124670
2005 01 19.30799 07 28 56.88 +27 08 14.5 19.8   704 – Lincoln Laboratory ETS, New Mexico MPS 124670
2005 01 19.33415 07 28 54.93 +27 08 16.1 20.0   704 – Lincoln Laboratory ETS, New Mexico MPS 124670
2005 02 03.23664 07 14 13.00 +27 09 39.8 19.7   704 – Lincoln Laboratory ETS, New Mexico MPS 125631
2005 02 03.24910 07 14 12.44 +27 09 39.2 20.2   704 – Lincoln Laboratory ETS, New Mexico MPS 125631
2005 02 03.26271 07 14 11.61 +27 09 37.4 19.9   704 – Lincoln Laboratory ETS, New Mexico MPS 125631
2005 02 03.27592 07 14 11.08 +27 09 35.0 20.4   704 – Lincoln Laboratory ETS, New Mexico MPS 125631
2005 02 04.24865 07 13 27.96 +27 08 41.2 18.8 R G96 – Mt. Lemmon Survey MPS 126349
2005 02 04.25646 07 13 27.58 +27 08 40.3 18.7 R G96 – Mt. Lemmon Survey MPS 126349
2005 02 04.26435 07 13 27.22 +27 08 39.8 18.8 R G96 – Mt. Lemmon Survey MPS 126349
2005 02 04.27218 07 13 26.85 +27 08 39.4 18.7 R G96 – Mt. Lemmon Survey MPS 126349
2007 10 24.36964 04 41 35.77 +25 44 58.3 19.5 V G96 – Mt. Lemmon Survey MPS 223342
2007 10 24.37918 04 41 35.62 +25 44 59.4 20.0 V G96 – Mt. Lemmon Survey MPS 223342
2007 10 24.38868 04 41 35.44 +25 45 00.3 19.9 V G96 – Mt. Lemmon Survey MPS 223342
2007 10 24.39818 04 41 35.30 +25 45 01.8 20.0 V G96 – Mt. Lemmon Survey MPS 223342
2007 11 01.31927 04 38 17.34 +25 58 57.0   691 – Steward Observatory, Kitt Peak-Spacewatch MPS 223342
2007 11 01.33692 04 38 16.64 +25 58 58.3   691 – Steward Observatory, Kitt Peak-Spacewatch MPS 223342
2007 11 01.35458 04 38 16.02 +25 58 59.6   691 – Steward Observatory, Kitt Peak-Spacewatch MPS 223342
2007 11 17.31440 04 24 37.46 +26 06 47.2 19.8 V 691 – Steward Observatory, Kitt Peak-Spacewatch MPS 228205
2007 11 17.33499 04 24 36.06 +26 06 46.6 19.6 V 691 – Steward Observatory, Kitt Peak-Spacewatch MPS 228205
2007 11 17.35608 04 24 34.62 +26 06 45.6 19.5 V 691 – Steward Observatory, Kitt Peak-Spacewatch MPS 228205
2007 11 18.28496 04 23 33.90 +26 06 12.0 19.8   704 – Lincoln Laboratory ETS, New Mexico MPS 228205
2007 11 18.29751 04 23 32.91 +26 06 13.2 19.9   704 – Lincoln Laboratory ETS, New Mexico MPS 228205
2007 11 18.31008 04 23 32.09 +26 06 11.6 20.1   704 – Lincoln Laboratory ETS, New Mexico MPS 228205
2007 11 18.32262 04 23 31.18 +26 06 11.3 19.9   704 – Lincoln Laboratory ETS, New Mexico MPS 228205
2007 11 18.33518 04 23 30.29 +26 06 11.3 20.5   704 – Lincoln Laboratory ETS, New Mexico MPS 228205
2007 12 04.23104 04 04 49.45 +25 40 26.9 19.5 r 699 – Lowell Observatory-LONEOS MPS 229715
2007 12 04.25663 04 04 47.64 +25 40 22.7 19.7 r 699 – Lowell Observatory-LONEOS MPS 229715
